Location: Riverside Cemetery
(38.3047°N, 99.7773°W)
Time: 01:03:44
(UTC+00:00)

Cosmos 2034 Rocket - Pass Details

Date: 19 September 2020
Orbit: 957 x 1002 km, 82.9° (Epoch: 23 October)

Event Time Altitude Azimuth Distance (km) Brightness Sun altitude
Rises 01:50:08 0° 168° (SSE) 3,709 6.8 -14.2°
Reaches altitude 10° 01:52:45 10° 162° (SSE) 2,764 6.1 -14.7°
Maximum altitude 01:58:48 48° 90° (E) 1,287 4.2 -15.8°
Drops below altitude 10° 02:04:51 10° 19° (NNE) 2,770 6.3 -17.0°
Sets 02:07:27 0° 14° (NNE) 3,719 7.1 -17.5°
